Location: Possagno
(45.8500°N, 11.8667°E)
Time: 02:46:58
(UTC+00:00)

STARLINK-1280 - Pass Details

Date: 07 June 2020
Orbit: 568 x 571 km, 53.0° (Epoch: 05 July)

Event Time Altitude Azimuth Distance (km) Brightness Sun altitude
Exits shadow 01:59:23 11° 255° (WSW) 1,787 5.7 -11.5°
Maximum altitude 02:03:23 58° 335° (NNW) 664 4.2 -11.1°
Drops below altitude 10° 02:07:36 10° 55° (NE) 1,873 7.7 -10.6°
Sets 02:09:53 0° 60° (ENE) 2,772 8.8 -10.3°
